Flag for Greece Weather past 2 weeks in Heraklion, Crete, Greece

Now
64 °F

Partly sunny.


Feels Like: 64 °F
Forecast: 49 / 59 °F
Wind: 28 mph from South

Location: Heraklion Airport

Current Time: Mar 6, 2015 at 3:33:00 PM

Latest Report: Mar 6, 2015 at 2:50 PM


Visibility: N/A

Pressure: 29.98 "Hg

Humidity: 60%

Dew point: 50 °F

Location of HeraklionLocation

Historic Weather in Heraklion — Graph

°F

Heraklion temperature yesterday

Maximum temperature yesterday: 66 °F (at 10:50 AM)
Minimum temperature yesterday: 48 °F (at 4:50 AM)
Average temperature yesterday: 59 °F

Past Weeks' High & Low Weather Summary

 TemperatureHumidityPressure
High66 °F (Feb 26, 10:50 AM)94% (Feb 23, 7:50 AM)30.24 "Hg (Feb 23, 7:50 AM)
Low45 °F (Feb 19, 2:20 PM)30% (Mar 3, 8:20 AM)29.45 "Hg (Mar 5, 3:50 AM)
Average56 °F71%29.98 "Hg
* Reported Feb 19 2:20 PM — Mar 6 2:20 PM, Heraklion, Weather by CustomWeather, © 2015

Note: Actual official high and low records may vary slightly from our data, if they occured in-between our weather recording intervals... More about our weather records

Advertising

Heraklion weather history for previous 24 hours

 ConditionsComfort  
Time TempWeatherWind HumidityBarometerVisibility
2:20 PM
Fri, Mar 6
64 °FPartly sunny.30 mph56%29.95 "HgN/A
1:50 PM64 °FPartly sunny.29 mph56%29.95 "HgN/A
1:20 PM64 °FPartly sunny.28 mph60%29.95 "HgN/A
12:50 PM64 °FPartly sunny.23 mph60%29.95 "HgN/A
12:20 PM63 °FScattered clouds.13 mph64%30.04 "HgN/A
11:50 AM63 °FScattered clouds.12 mph64%30.04 "HgN/A
11:20 AM63 °FPassing clouds.16 mph64%30.01 "HgN/A
10:50 AM63 °FPassing clouds.18 mph64%30.01 "HgN/A
10:20 AM63 °FPassing clouds.18 mph64%30.01 "HgN/A
9:50 AM63 °FPassing clouds.25 mph64%30.01 "HgN/A
9:20 AM61 °FPassing clouds.26 mph68%30.01 "HgN/A
8:50 AM61 °FPassing clouds.23 mph68%30.01 "HgN/A
8:20 AM61 °FPartly sunny.26 mph72%30.01 "HgN/A
7:50 AM59 °FPassing clouds.28 mph77%30.01 "HgN/A
7:20 AM59 °FPartly sunny.23 mph72%30.01 "HgN/A
5:20 AM59 °FPassing clouds.32 mph68%29.98 "HgN/A
4:50 AM59 °FPassing clouds.30 mph68%29.98 "HgN/A
3:50 AM59 °FPassing clouds.25 mph68%29.98 "HgN/A
3:20 AM59 °FPassing clouds.25 mph68%30.04 "HgN/A
2:50 AM59 °FPassing clouds.23 mph68%30.04 "HgN/A
2:20 AM59 °FPassing clouds.24 mph68%30.04 "HgN/A
1:50 AM59 °FPassing clouds.22 mph68%30.04 "HgN/A
1:20 AM59 °FPassing clouds.23 mph68%30.04 "HgN/A
12:50 AM59 °FPassing clouds.21 mph68%30.04 "HgN/A
12:20 AM57 °FPassing clouds.20 mph77%30.04 "HgN/A
10:50 PM
Thu, Mar 5
57 °FPassing clouds.23 mph77%30.04 "HgN/A
10:20 PM59 °FPassing clouds.28 mph68%30.04 "HgN/A
9:50 PM59 °FPassing clouds.16 mph68%30.04 "HgN/A
9:20 PM59 °FPassing clouds.12 mph68%30.04 "HgN/A
8:50 PM59 °FPassing clouds.20 mph68%30.04 "HgN/A
8:20 PM59 °FPassing clouds.21 mph72%30.04 "HgN/A
7:50 PM59 °FPassing clouds.24 mph72%30.04 "HgN/A
7:20 PM63 °FPassing clouds.23 mph59%30.04 "HgN/A
6:50 PM63 °FPassing clouds.18 mph59%30.04 "HgN/A
6:20 PM63 °FPassing clouds.17 mph59%30.01 "HgN/A
5:50 PM63 °FPassing clouds.22 mph59%30.01 "HgN/A
5:20 PM63 °FPassing clouds.20 mph59%30.01 "HgN/A
4:50 PM63 °FPassing clouds.22 mph59%30.01 "HgN/A
4:20 PM66 °FPassing clouds.23 mph56%30.01 "HgN/A
3:50 PM66 °FPassing clouds.20 mph56%30.01 "HgN/A
3:20 PM66 °FPassing clouds.21 mph56%30.04 "HgN/A
Weather by CustomWeather, © 2015

See weather overviewHow to use our weather pages